Missoula, MT

12:28 AM MDT on September 27, 2016 (GMT -0600)
Missoula International

Weather History for KMSO - July, 2012

Change the Weather History Date:

Friday, July 20, 2012

  Actual Average Record
Temperature  
Mean Temperature 77 °F 70 °F  
Max Temperature 91 °F 88 °F 102 °F (1960)
Min Temperature 62 °F 52 °F 38 °F (1901)
Degree Days  
Heating Degree Days 0 1  
Month to date heating degree days 11 31  
Since 1 June heating degree days 202 191  
Since 1 July heating degree days 11 31  
Cooling Degree Days 12 6  
Month to date cooling degree days 149 86  
Year to date cooling degree days 179 129  
Since 1 June cooling degree days 179 123  
Growing Degree Days 26 (Base 50)    
Moisture  
Dew Point 51 °F    
Average Humidity 45    
Maximum Humidity 67    
Minimum Humidity 23    
Precipitation  
Precipitation T in 0.03 in 0.47 in (1983)
Month to date precipitation 0.84 0.69  
Year to date precipitation 10.05 8.54  
Snow  
Snow 0.00 in - - ()
Month to date snowfall 0.0  
Year to date snowfall 29.2  
Since 1 July snowfall 0.0  
Snow Depth 0.00 in    
Sea Level Pressure  
Sea Level Pressure 29.96 in    
Wind  
Wind Speed 7 mph (NW)    
Max Wind Speed 37 mph    
Max Gust Speed 52 mph    
Visibility 10 miles    
Events Rain    
T = Trace of Precipitation, MM = Missing Value Source: NWS Daily Summary

Daily Weather History Graph

Daily Weather History Graph

Search for Another Location

Airport or City:

Trip Planner

Search our weather history database for the weather conditions in past years. The results will help you decide how hot, cold, wet, or windy it might be!

Date:

Astronomy

Jul. 20, 2012 Rise Set
Actual Time 6:02 AM MDT 9:22 PM MDT
Civil Twilight 5:25 AM MDT 9:59 PM MDT
Nautical Twilight 4:36 AM MDT 10:47 PM MDT
Astronomical Twilight 3:34 AM MDT 11:49 PM MDT
Moon 7:54 AM MDT (7/20) 9:51 PM MDT (7/20)
Length of Visible Light 16h 33m
Length of Day
15h 19m
Waxing Crescent, 3% of the Moon is Illuminated
Jul 20
Waxing Crescent
Jul 26
First Quarter
Aug 1
Full
Aug 9
Last Quarter
Aug 17
New

Hourly Weather History & Observations

Time (MDT) Temp. Heat Index Dew Point Humidity Pressure Visibility Wind Dir Wind Speed Gust Speed Precip Events Conditions
12:53 AM 72.0 °F - 50.0 °F 46% 29.91 in 10.0 mi ESE 3.5 mph - N/A   Clear
1:53 AM 64.9 °F - 46.9 °F 52% 29.92 in 10.0 mi NNW 6.9 mph - N/A   Clear
2:53 AM 66.9 °F - 46.9 °F 49% 29.91 in 10.0 mi Calm Calm - N/A   Clear
3:53 AM 66.0 °F - 51.1 °F 59% 29.91 in 10.0 mi Calm Calm - N/A   Clear
4:53 AM 62.1 °F - 52.0 °F 70% 29.92 in 10.0 mi ESE 4.6 mph - N/A   Clear
5:53 AM 66.0 °F - 48.0 °F 52% 29.93 in 10.0 mi ESE 9.2 mph - N/A   Clear
6:53 AM 63.0 °F - 50.0 °F 63% 29.95 in 10.0 mi SE 3.5 mph - N/A   Clear
7:53 AM 66.9 °F - 51.1 °F 57% 29.95 in 10.0 mi WNW 3.5 mph - N/A   Clear
8:53 AM 66.0 °F - 54.0 °F 65% 29.99 in 10.0 mi Calm Calm - N/A   Partly Cloudy
9:53 AM 68.0 °F - 53.1 °F 59% 29.99 in 10.0 mi Calm Calm - N/A   Clear
10:17 AM 69.8 °F - 53.6 °F 56% 30.06 in 10.0 mi West 3.5 mph - 0.00 in Rain Light Rain
10:53 AM 72.0 °F - 48.9 °F 44% 29.98 in 10.0 mi Calm Calm - 0.00 in   Clear
11:53 AM 81.0 °F - 50.0 °F 34% 29.96 in 10.0 mi NNW 3.5 mph - N/A   Partly Cloudy
12:53 PM 84.9 °F - 48.9 °F 29% 29.93 in 10.0 mi WSW 6.9 mph - N/A   Clear
1:53 PM 90.0 °F - 46.0 °F 22% 29.88 in 10.0 mi Variable 3.5 mph - N/A   Clear
2:53 PM 82.9 °F - 52.0 °F 34% 29.88 in 10.0 mi WSW 8.1 mph - N/A   Clear
3:53 PM 79.0 °F - 50.0 °F 36% 29.92 in 10.0 mi NNW 10.4 mph - 0.00 in   Partly Cloudy
4:53 PM 86.0 °F - 48.0 °F 27% 29.90 in 10.0 mi WNW 5.8 mph - N/A   Clear
5:53 PM 84.0 °F 82.5 °F 53.1 °F 34% 29.89 in 10.0 mi NW 11.5 mph - N/A   Clear
6:53 PM 80.1 °F - 52.0 °F 38% 29.91 in 10.0 mi NW 15.0 mph 27.6 mph N/A   Partly Cloudy
7:53 PM 77.0 °F - 55.9 °F 48% 29.96 in 10.0 mi North 18.4 mph 32.2 mph N/A   Mostly Cloudy
8:53 PM 73.9 °F - 55.9 °F 53% 30.00 in 10.0 mi North 12.7 mph 26.5 mph N/A   Clear
9:53 PM 73.0 °F - 55.9 °F 55% 30.06 in 10.0 mi NNW 13.8 mph - N/A   Clear
10:53 PM 71.6 °F - 55.4 °F 57% 30.15 in 10.0 mi NNW 11.5 mph - N/A   Overcast
11:53 PM 70.0 °F - 55.9 °F 61% 30.09 in 10.0 mi NNW 5.8 mph - N/A   Overcast